www.pogodaiklimat.ru

Погода и климат >> Архив погоды >> Монголия >> Жаргалант


ПОГОДА в Жаргаланте

  • Прогноз погоды в Жаргаланте
  • Монитор погоды в Жаргаланте

АРХИВ ПОГОДЫ в Жаргаланте

Время (UTC), дата Ветер
(напр.,м/с)
 
Видим.   Явления Облачность Т
(С)
Тd
(С)
f
(%)
Тe
(С)
Тes
(С)
Комфортность P
(гПа)
Po
(гПа)
Тmin
(С)
Tmax
(С)
R
(мм)
R24
(мм)
S
(см)
00 9.09 СЗ 3 20 км 4/0
[Ac lent]
+5.2 -9.0 35 +3 +3 1023.8 806.2 +3.7
03 9.09 С 3 20 км 10/10 600 м
[Sc]
+9.3 -3.6 40 +8 +8 1021.0 806.8
06 9.09 Ю 3 20 км в посл. час ливневой дождь 10/10 1000 м
[Sc]
+9.6 +5.4 75 +7 +7 1019.9 806.1
09 9.09 ЮВ 4 20 км 8/8 1000 м
[Sc]
+14.1 +2.7 46 +13 +14 1013.0 803.6
12 9.09 Ю 1 20 км 4/0
[Ac lent Ci fib]
+14.4 +2.0 43 +15 +15 1012.1 803.1 +16.4 2
15 9.09 З 1 20 км 4/0
[Ac trans]
+11.3 +3.1 57 +11 +11 1014.5 803.0
18 9.09 Ю 3
{7}
20 км 8/0
[Ac As]
+13.8 +0.4 40 +13 +13 1010.2 801.2
21 9.09 ЮЗ 3
{7}
20 км 10/10 1000 м
[Sc]
+14.4 +1.6 42 +14 +14 1010.8 802.1
00 10.09 З 4
{9}
20 км 10/10 1000 м
[Sc]
+10.6 +2.9 59 +8 +8 1015.5 803.3 +9.2
03 10.09 Ю 1 10 км слаб. дождь 10/0 600 м
[As op]
+10.0 +5.6 74 +10 +11 1016.6 803.8
06 10.09 В 1 20 км {дождь} 10/10 1000 м
[Sc]
+13.0 +4.9 58 +13 +13 1012.4 802.4
09 10.09 ЮЗ 3
{11}
20 км {дождь} 10/10 1000 м
[Sc]
+13.2 +3.8 53 +12 +12 1012.1 802.3
12 10.09 СЗ 3 20 км {дождь} 10/10 1000 м
[Sc]
+10.2 +4.8 69 +8 +8 1016.5 803.8 +14.0 2
15 10.09 З 3 н/о дождь 10/0 600 м
[As op]
+8.3 +4.3 76 +6 +6 1019.5 804.9
18 10.09 СЗ 4 н/о слаб. дождь 10/0 600 м
[As op]
+5.8 +2.8 81 +2 +2 1022.1 805.3
21 10.09 З 5 н/о {дождь} 10/10 600 м
[Sc]
+6.0 +0.1 66 +2 +2 1022.6 805.8
00 11.09 З 4
{8}
20 км {дождь} 8/8 1000 м
[Sc]
+5.6 -1.1 62 +2 +2 1023.7 806.4 +5.2 3
03 11.09 З 6
{10}
20 км 4/4 1000 м
[Sc diur, vesp]
+7.6 -1.4 53 +4 +5 1023.4 807.5
06 11.09 ЮЗ 3
{11}
20 км 3/3 600 м
[Sc diur, vesp]
+7.5 -2.8 48 +5 +12 1023.4 807.5
09 11.09 В 9
{14}
20 км 3/3 600 м
[Cb calv]
+8.0 -2.3 48 +4 +4 1021.5 807.1
12 11.09 З 7-10
{14}
20 км 3/0
[Ac cuf]
+5.8 -2.0 57 +1 +1 1025.9 808.3 +8.5
15 11.09 З 7-11
{11}
20 км 3/0
[Ac lent]
+4.9 -3.1 56 -0 -0 1028.0 809.3
18 11.09 З 4
{8}
20 км 1/0
[Ci fib]
+4.2 -4.0 55 0 0 1029.0 809.6
21 11.09 З 2 20 км ясно +2.7 -3.8 62 0 0 1029.6 809.0
00 12.09 ЮЗ 3 20 км 10/10 1000 м
[Sc]
+3.7 -3.8 58 0 0 1029.3 809.5 +2.5
03 12.09 Ю 3 10 км осадки на расстоянии 10/0 600 м
[As op]
+4.4 +0.6 76 +1 +2 1027.5 809.6
06 12.09 Ю 3 10 км дождь 10/0 600 м
[As op]
+2.1 +1.2 94 -2 -0 1029.7 809.4
12 12.09 З 9
{12}
20 км {дождь} 1/0
[Ci fib]
+3.2 -5.4 53 -3 -3 1029.8 809.5 +7.5 2
15 12.09 З 2 20 км ясно +2.3 -6.8 51 -0 -0 1032.2 810.8
21 12.09 штиль 0 20 км ясно -3.1 -6.2 79 -4 -4 1036.8 810.5
00 13.09 СЗ 1 20 км ясно -2.3 -6.6 72 -4 -4 1036.3 810.7 -3.2
03 13.09 С 2 20 км ясно +2.7 -6.7 50 0 +6 1031.2 810.3
06 13.09 ЮВ 2 20 км ясно +8.6 -5.6 36 +8 +19 опасность
простуды
1024.0 808.7
09 13.09 З 4 20 км 1/0
[Ci fib]
+9.6 -11.7 21 +8 +11 1021.9 807.7
12 13.09 З 5
{8}
20 км 3/0
[Ac lent]
+7.1 -5.3 41 +4 +4 1023.5 807.3 +10.2
15 13.09 З 2
{6}
20 км 5/0
[Cs]
+6.0 -6.2 41 +4 +4 1025.5 808.1
18 13.09 В 1 20 км 6/0
[Cs]
+3.2 -3.6 61 +2 +2 1028.2 808.3
21 13.09 В 1 20 км 5/0
[Ac cast]
+2.2 -3.5 66 +1 +1 1028.4 807.7
00 14.09 З 2 20 км ясно 0.0 -4.1 74 -3 -3 1031.5 808.6 -0.2
03 14.09 В 2 20 км 1/1 1000 м
[Cu hum]
+7.5 -4.0 44 +6 +11 1025.1 808.8
06 14.09 З 8-12
{12}
20 км 3/1 1000 м
[Cu hum Cc]
+10.1 -5.0 34 +7 +8 1022.0 808.1
09 14.09 З 5
{12}
20 км 4/3 1000 м
[Cu med, cong Ac lent]
+11.6 -3.0 36 +10 +11 1019.8 807.4
12 14.09 З 4 20 км 5/0
[Cs]
+9.2 -2.1 45 +7 +7 1022.1 807.6 +11.8
15 14.09 З 3 20 км 3/0
[Ci fib]
+6.1 -2.4 54 +3 +3 1026.1 808.7
18 14.09 З 2 20 км 3/0
[Ci fib]
+2.9 -3.7 62 0 0 1029.0 808.7
21 14.09 СЗ 2 20 км ясно +0.9 -2.7 77 -2 -2 1030.4 808.4
00 15.09 СЗ 2 20 км ясно -0.3 -4.7 72 -4 -4 1032.6 809.2 -1.4
03 15.09 С 2 20 км ясно +6.2 -3.7 49 +4 +10 1026.6 809.1
06 15.09 В 3 20 км ясно +11.6 -6.3 28 +10 +19 1020.0 807.5
09 15.09 З 5
{10}
20 км ясно +12.5 -4.6 30 +11 +14 1018.2 806.7
12 15.09 З 5
{10}
20 км ясно +10.5 -4.3 35 +8 +8 1019.9 806.7 +12.9
15 15.09 З 3 20 км ясно +7.3 -4.8 42 +5 +5 1024.1 807.9
18 15.09 СЗ 2 20 км ясно +3.1 -4.4 58 +1 +1 1028.2 808.2
21 15.09 СЗ 2 20 км ясно +1.0 -3.3 73 -2 -2 1030.1 808.2

 

Местоположение метеостанции Жаргалант (Монголия): широта 46.92 долгота 91.08 высота над уровнем моря 1951 м.

В архиве по умолчанию представлена погода в Жаргаланте за последнюю неделю. Архивные данные за месяц целиком и за предыдущие месяцы, начиная с января 2011 года, Вы можете получить, выбрав интересующий диапазон дат из раскрывающегося списка и нажав кнопку "Ввод!".


*Определитесь, кто Вы:
робот инопланетянин человек

Внимание! Время в таблицах - всемирное. Для получения местного времени необходимо прибавить поправку, которая равна 8 ч.

Смотрите также архив погоды в соседних городах и на ближайших метеорологических станциях:

Погода в Байтаге (Монголия) (94 км)
Погода в Фуюне (Синьцзян-Уйгурский автономный район, Китай) (119 км)
Погода в Ховде (Монголия) (128 км)
Погода в Толбо (Монголия) (177 км)
Погода в Бейта Шан (Синьцзян-Уйгурский автономный район, Китай) (178 км)
Погода в Тонхиле (Монголия) (226 км)
Погода в Умнегове (Монголия) (238 км)
Погода в Углие (Монголия) (239 км)
Погода в Алтае (Синьцзян-Уйгурский автономный район, Китай) (243 км)
Погода в Завхане (Монголия) (260 км)

Пояснения к столбцам:

Ветер - указаны скорость ветра в м/с - средняя за 10 мин, порывы в срок и между сроками (в фигурных скобках) и направление, откуда дует ветер: С - северный, СВ - северо-восточный, В - восточный, ЮВ - юго-восточный, Ю - южный, ЮЗ - юго-западный, З - западный, СЗ - северо-западный.
Видимость - горизонтальная дальность видимости в метрах или километрах. При видимости от 1 до 10 км при отсутствии осадков обычно наблюдается дымка, при ухудшении видимости до 1 км и менее - туман. В сухую погоду видимость может ухудшаться дымом, пылью или мглою.
Явления - указаны атмосферные явления, наблюдавшиеся в срок или в последний час перед сроком; фигурными скобками обозначены явления, наблюдавшиеся между сроками (за 1-3 часа до срока); квадратными скобками обозначены град или гололедные отложения с указанием их диаметра в мм.
Облачность - указаны через наклонную черту общая и нижняя облачность в баллах и высота нижней границы облаков в метрах; квадратными скобками обозначены формы облаков: Ci - перистые, Cs - перисто-слоистые, Cc - перисто-кучевые, Ac - высококучевые, As - высокослоистые, Sc - слоисто-кучевые, Ns - слоисто-дождевые, Cu - кучевые, Cb - кучево-дождевые. Подробнее классификацию облаков см. в Атласе облаков (PDF).
T - Температура воздуха - температура, измеренная на высоте 2 м над землей.
Td - Температура точки росы - температура, при понижении до которой содержащийся в воздухе водяной пар достигнет насыщения.
f - Относительная влажность воздуха - влажноcть воздуха, измеренная на высоте 2 м над землей.
Te - Эффективная температура - температура, которую ощущает одетый по сезону человек в тени. Характеристика душности погоды. При расчете учитывается влияние влажности воздуха и скорости ветра на теплоощущения человека.
Tes - Эффективная температура на солнце - температура, которую ощущает человек, с поправкой на солнечный нагрев. Характеристика знойности погоды. Зависит от высоты солнца над горизонтом, облачности и скорости ветра. Ночью, в пасмурную погоду, а также при ветре 12 м/с и более поправка равна нулю.
P - Атмосферное давление - приведенное к уровню моря атмосферное давление.
Po - Атмосферное давление - измеренное на уровне метеостанции атмосферное давление.
Tmin - Минимальная температура - минимум температуры воздуха на высоте 2 м над землей.
Tmax - Максимальная температура - максимум температуры воздуха на высоте 2 м над землей.
R - Количество осадков - Количество выпавших осадков за период времени, мм. При наведении курсора мыши на число - период времени, за который выпало указанное количество осадков.
R24 - Количество осадков - Количество выпавших осадков за 24 часа, мм.
S - Снежный покров - Высота снежного покрова, см. При наведении курсора мыши на число - состояние снежного покрова и степень покрытия местности в баллах.